Location: Tamazert
(32.6352°N, 5.2072°W)
Time: 04:30:26
(UTC+00:00)

Vanguard 2 Rocket - Pass Details

Date: 04 October 2022
Orbit: 555 x 3321 km, 32.9° (Epoch: 05 December)

Event Time Altitude Azimuth Distance (km) Brightness Sun altitude
Rises 19:14:59 0° 209° (SSW) 7,248 11.8 -16.2°
Reaches altitude 10° 19:20:45 10° 200° (SSW) 6,270 11.3 -17.5°
Maximum altitude 19:37:04 33° 146° (SE) 4,211 9.9 -20.9°
Enters shadow 19:42:58 27° 115° (ESE) 4,203 9.7 -22.1°
Drops below altitude 10° 19:49:37 10° 90° (E) 4,888 - -23.5°
Sets 19:53:21 0° 81° (E) 5,531 - -24.2°
